Brookings, OR

11:54 AM PDT on September 23, 2017 (GMT -0700)
Brookings State

Weather History for KBOK - April, 2014

Change the Weather History Date:

Friday, April 25, 2014

  Actual Average Record
Temperature  
Mean Temperature 48 °F -  
Max Temperature 54 °F 59 °F 82 °F (1935)
Min Temperature 41 °F 42 °F 36 °F (1942)
Degree Days  
Heating Degree Days 16    
Moisture  
Dew Point 43 °F    
Average Humidity 87    
Maximum Humidity 100    
Minimum Humidity 64    
Precipitation  
Precipitation 0.20 in - - ()
Sea Level Pressure  
Sea Level Pressure 29.91 in    
Wind  
Wind Speed 5 mph (North)    
Max Wind Speed 16 mph    
Max Gust Speed 23 mph    
Visibility 6 miles    
Events Rain    
Averages and records for this station are not official NWS values.
T = Trace of Precipitation, MM = Missing Value Source: NWS Daily Summary

Daily Weather History Graph

Daily Weather History Graph

Search for Another Location

Airport or City:

Trip Planner

Search our weather history database for the weather conditions in past years. The results will help you decide how hot, cold, wet, or windy it might be!

Date:

Astronomy

Apr. 25, 2014 Rise Set
Actual Time 6:21 AM PDT 8:09 PM PDT
Civil Twilight 5:51 AM PDT 8:39 PM PDT
Nautical Twilight 5:15 AM PDT 9:16 PM PDT
Astronomical Twilight 4:35 AM PDT 9:55 PM PDT
Moon 4:16 AM PDT (4/25) 4:34 PM PDT (4/25)
Length of Visible Light 14h 48m
Length of Day
13h 48m
Waning Crescent, 14% of the Moon is Illuminated
Apr 25
Waning Crescent
Apr 28
New
May 6
First Quarter
May 14
Full
May 21
Last Quarter

Hourly Weather History & Observations

Time (PDT) Temp. Windchill Dew Point Humidity Pressure Visibility Wind Dir Wind Speed Gust Speed Precip Events Conditions
12:27 AM 46.4 °F 44.3 °F 46.4 °F 100% 29.94 in 6.0 mi ESE 4.6 mph - N/A   Scattered Clouds
12:56 AM 46.9 °F - 45.9 °F 96% 29.95 in 7.0 mi ESE 3.5 mph - N/A   Mostly Cloudy
1:07 AM 46.4 °F 44.3 °F 46.4 °F 100% 29.94 in 7.0 mi ESE 4.6 mph - N/A   Mostly Cloudy
1:37 AM 46.4 °F 44.3 °F 46.4 °F 100% 29.95 in 2.5 mi WSW 4.6 mph - 0.04 in Rain Heavy Rain
1:56 AM 45.9 °F - 43.9 °F 93% 29.95 in 6.0 mi Calm Calm - 0.06 in Rain Light Rain
2:56 AM 45.0 °F 43.5 °F 43.9 °F 96% 29.94 in 8.0 mi ESE 3.5 mph - 0.00 in   Overcast
3:25 AM 44.6 °F - 44.6 °F 100% 29.92 in 8.0 mi Calm Calm - N/A   Overcast
3:56 AM 45.0 °F - 43.9 °F 96% 29.92 in 8.0 mi Calm Calm - N/A   Overcast
4:56 AM 45.0 °F 43.5 °F 43.9 °F 96% 29.92 in 9.0 mi ENE 3.5 mph - N/A   Overcast
5:56 AM 43.9 °F - 43.0 °F 97% 29.90 in 9.0 mi Calm Calm - N/A   Partly Cloudy
6:37 AM 44.6 °F 42.2 °F 42.8 °F 93% 29.89 in 8.0 mi Variable 4.6 mph - N/A   Mostly Cloudy
7:18 AM 44.6 °F 41.4 °F 44.6 °F 100% 29.90 in 1.8 mi NNE 5.8 mph - 0.01 in Rain Heavy Rain
7:28 AM 44.6 °F 41.4 °F 42.8 °F 93% 29.90 in 1.2 mi NNE 5.8 mph - 0.03 in Rain Heavy Rain
7:44 AM 44.6 °F 41.4 °F 42.8 °F 93% 29.90 in 1.0 mi ENE 5.8 mph - 0.09 in Rain Heavy Rain
7:56 AM 43.9 °F 41.3 °F 43.0 °F 97% 29.91 in 2.5 mi ENE 4.6 mph - 0.10 in Rain Light Rain
8:00 AM 44.6 °F 43.1 °F 42.8 °F 93% 29.90 in 4.0 mi Variable 3.5 mph - 0.01 in Rain Light Rain
8:56 AM 46.9 °F - 45.0 °F 93% 29.91 in 9.0 mi Calm Calm - 0.01 in   Partly Cloudy
9:39 AM 50.0 °F - 44.6 °F 82% 29.90 in 2.5 mi Variable 4.6 mph - 0.03 in Rain Heavy Rain
9:45 AM 48.2 °F - 44.6 °F 87% 29.90 in 3.0 mi NW 6.9 mph - 0.03 in Rain Light Rain
9:56 AM 47.8 °F - 45.0 °F 90% 29.91 in 6.0 mi WNW 3.5 mph - 0.03 in Rain Light Rain
10:56 AM 48.9 °F - 43.0 °F 80% 29.91 in 8.0 mi WNW 3.5 mph - 0.00 in   Partly Cloudy
11:56 AM 52.9 °F - 45.0 °F 74% 29.91 in 8.0 mi Variable 6.9 mph - N/A   Partly Cloudy
12:56 PM 52.9 °F - 43.9 °F 71% 29.90 in 7.0 mi West 6.9 mph - N/A   Clear
1:56 PM 52.9 °F - 43.9 °F 71% 29.89 in 8.0 mi NNW 10.4 mph 16.1 mph N/A   Clear
2:56 PM 54.0 °F - 41.9 °F 64% 29.89 in 8.0 mi NW 13.8 mph - N/A   Clear
3:56 PM 54.0 °F - 41.9 °F 64% 29.89 in 8.0 mi NW 16.1 mph 20.7 mph N/A   Clear
4:56 PM 54.0 °F - 43.0 °F 66% 29.88 in 8.0 mi NW 16.1 mph 21.9 mph N/A   Clear
5:56 PM 52.9 °F - 41.9 °F 66% 29.89 in 8.0 mi NW 16.1 mph 23.0 mph N/A   Clear
6:56 PM 52.9 °F - 41.9 °F 66% 29.89 in 7.0 mi NNW 10.4 mph - N/A   Clear
7:56 PM 48.9 °F - 41.9 °F 77% 29.90 in 7.0 mi NNW 10.4 mph - N/A   Clear
8:56 PM 46.9 °F - 41.9 °F 83% 29.91 in 8.0 mi NNW 4.6 mph - N/A   Clear
9:56 PM 45.9 °F 44.6 °F 41.0 °F 83% 29.93 in 9.0 mi ENE 3.5 mph - N/A   Clear
10:56 PM 43.9 °F 42.3 °F 41.0 °F 90% 29.93 in 9.0 mi North 3.5 mph - N/A   Clear
11:56 PM 41.9 °F - 39.9 °F 93% 29.92 in 9.0 mi Calm Calm - N/A   Clear